Terug naar catalogus

SL-16 DEB

ActiefLEO
NORAD 22293·DEBRIS·🇷🇺 Russia

Gelanceerd Dec 25, 1992 vanaf Baikonur Cosmodrome

Loading…

Volgende Passages (komende 24 uur)

TLE

VersSource: Space-Track

Epoch: Sep 14, 2026, 07:08 UTC

1 22293U 92093H   26257.29763281  .00000058  00000-0  91622-4 0  9998
2 22293  71.0531 275.8414 0194450 125.7972 236.1377 13.74726513684853

Volg SL-16 DEB in realtime met AllMySat

Download on the App Store